Total_Precipitation_Accumulation
0.02 0.01 0.00 0.00 0.00 0.00 0.00 0.00 0.00 0.00 0.00 0.00 0.00 0.00 0.00 0.00 0.00 0.00 0.00 0.00 0.00 0.00 0.00 0.00 0.00 0.00 0.00 0.00 0.00 0.00 0.01 0.07 0.09 0.16 0.20 0.16 0.16 0.19 0.24 0.24 0.24 0.17 0.17
0.00 0.00 0.00 0.00 0.00 0.00 0.00 0.00 0.00 0.00 0.00 0.00 0.00 0.00 0.00 0.00 0.00 0.00 0.00 0.00 0.00 0.00 0.00 0.00 0.00 0.00 0.00 0.00 0.00 0.00 0.00 0.00 0.03 0.06 0.19 0.18 0.15 0.19 0.19 0.18 0.23 0.27 0.20
0.00 0.01 0.00 0.00 0.00 0.00 0.00 0.00 0.00 0.00 0.00 0.00 0.00 0.00 0.00 0.00 0.00 0.00 0.00 0.00 0.00 0.00 0.00 0.00 0.00 0.00 0.00 0.00 0.00 0.00 0.00 0.00 0.01 0.05 0.08 0.18 0.16 0.14 0.19 0.20 0.24 0.29 0.30
0.01 0.01 0.00 0.00 0.00 0.00 0.00 0.00 0.00 0.00 0.00 0.00 0.00 0.00 0.00 0.00 0.00 0.00 0.00 0.00 0.00 0.00 0.00 0.00 0.00 0.00 0.00 0.00 0.00 0.00 0.00 0.00 0.00 0.00 0.01 0.08 0.27 0.23 0.15 0.20 0.33 0.37 0.37
0.03 0.01 0.00 0.00 0.00 0.00 0.00 0.00 0.00 0.00 0.01 0.00 0.00 0.00 0.00 0.00 0.00 0.00 0.00 0.00 0.00 0.00 0.00 0.00 0.00 0.00 0.00 0.00 0.00 0.00 0.00 0.00 0.00 0.01 0.01 0.00 0.03 0.21 0.32 0.30 0.31 0.45 0.47
0.01 0.00 0.00 0.00 0.00 0.00 0.00 0.00 0.00 0.00 0.00 0.00 0.00 0.00 0.00 0.00 0.00 0.00 0.00 0.00 0.00 0.00 0.00 0.00 0.00 0.00 0.00 0.00 0.00 0.00 0.00 0.00 0.00 0.01 0.01 0.00 0.01 0.01 0.05 0.18 0.37 0.55 0.63
0.00 0.00 0.00 0.00 0.00 0.00 0.00 0.00 0.00 0.00 0.00 0.00 0.00 0.00 0.00 0.00 0.00 0.00 0.00 0.00 0.00 0.00 0.00 0.00 0.00 0.00 0.00 0.00 0.00 0.00 0.00 0.00 0.00 0.00 0.00 0.01 0.01 0.00 0.00 0.03 0.13 0.28 0.49
0.00 0.00 0.00 0.00 0.00 0.00 0.00 0.00 0.00 0.00 0.00 0.00 0.00 0.01 0.00 0.00 0.00 0.00 0.00 0.01 0.00 0.01 0.01 0.00 0.00 0.00 0.00 0.00 0.00 0.00 0.00 0.00 0.00 0.00 0.00 0.00 0.01 0.01 0.00 0.01 0.04 0.17 0.34
0.00 0.00 0.00 0.00 0.00 0.00 0.00 0.00 0.00 0.00 0.00 0.00 0.00 0.02 0.02 0.00 0.00 0.00 0.00 0.01 0.02 0.01 0.02 0.02 0.02 0.01 0.00 0.00 0.00 0.00 0.00 0.00 0.00 0.00 0.00 0.00 0.00 0.01 0.02 0.01 0.02 0.02 0.07
0.00 0.00 0.00 0.00 0.00 0.00 0.00 0.00 0.00 0.00 0.00 0.00 0.00 0.00 0.00 0.02 0.05 0.03 0.00 0.00 0.00 0.02 0.03 0.03 0.04 0.07 0.08 0.05 0.03 0.02 0.00 0.00 0.00 0.00 0.00 0.00 0.00 0.00 0.01 0.03 0.02 0.02 0.02
0.00 0.00 0.00 0.00 0.00 0.00 0.00 0.00 0.00 0.00 0.00 0.00 0.00 0.00 0.00 0.01 0.02 0.07 0.05 0.01 0.02 0.02 0.03 0.05 0.05 0.07 0.11 0.13 0.14 0.12 0.07 0.03 0.01 0.00 0.00 0.00 0.01 0.01 0.01 0.02 0.03 0.03 0.03
0.02 0.01 0.00 0.00 0.00 0.00 0.00 0.00 0.01 0.01 0.01 0.00 0.00 0.01 0.02 0.04 0.04 0.06 0.08 0.04 0.04 0.04 0.07 0.16 0.19 0.15 0.17 0.14 0.14 0.13 0.10 0.05 0.03 0.03 0.01 0.01 0.01 0.01 0.01 0.01 0.02 0.03 0.04
0.04 0.02 0.01 0.00 0.01 0.01 0.02 0.06 0.08 0.04 0.01 0.01 0.02 0.03 0.03 0.04 0.04 0.06 0.11 0.10 0.10 0.04 0.10 0.12 0.12 0.09 0.17 0.30 0.29 0.27 0.21 0.16 0.11 0.05 0.01 0.01 0.01 0.00 0.01 0.00 0.03 0.03 0.04
0.03 0.02 0.01 0.01 0.04 0.07 0.08 0.05 0.03 0.02 0.04 0.06 0.05 0.05 0.03 0.03 0.03 0.08 0.18 0.28 0.25 0.12 0.08 0.07 0.04 0.08 0.08 0.12 0.21 0.22 0.12 0.12 0.16 0.17 0.15 0.09 0.03 0.01 0.01 0.01 0.01 0.04 0.06
0.06 0.04 0.03 0.05 0.06 0.02 0.01 0.01 0.02 0.04 0.06 0.07 0.08 0.08 0.08 0.05 0.05 0.07 0.12 0.24 0.49 0.38 0.08 0.02 0.04 0.04 0.07 0.10 0.12 0.18 0.21 0.16 0.15 0.14 0.11 0.12 0.14 0.10 0.04 0.02 0.01 0.03 0.05
0.06 0.04 0.03 0.01 0.00 0.01 0.01 0.01 0.02 0.05 0.08 0.07 0.08 0.07 0.04 0.06 0.07 0.09 0.12 0.14 0.15 0.22 0.13 0.00 0.00 0.00 0.00 0.01 0.03 0.05 0.09 0.16 0.16 0.17 0.21 0.09 0.04 0.10 0.15 0.13 0.03 0.01 0.03
0.04 0.03 0.01 0.01 0.01 0.01 0.03 0.06 0.10 0.08 0.07 0.08 0.05 0.04 0.04 0.04 0.03 0.03 0.01 0.00 0.01 0.02 0.04 0.00 0.00 0.00 0.00 0.00 0.00 0.00 0.01 0.03 0.06 0.09 0.17 0.18 0.13 0.14 0.13 0.16 0.16 0.06 0.01
0.06 0.03 0.03 0.05 0.07 0.07 0.10 0.13 0.10 0.09 0.06 0.02 0.01 0.02 0.01 0.00 0.00 0.00 0.00 0.00 0.00 0.00 0.00 0.00 0.00 0.00 0.00 0.00 0.00 0.00 0.00 0.00 0.01 0.03 0.08 0.18 0.25 0.20 0.17 0.17 0.17 0.14 0.06
0.06 0.05 0.06 0.06 0.08 0.11 0.11 0.08 0.06 0.04 0.02 0.02 0.01 0.00 0.00 0.00 0.00 0.00 0.00 0.00 0.00 0.00 0.01 0.03 0.01 0.00 0.00 0.00 0.01 0.01 0.01 0.00 0.00 0.00 0.01 0.04 0.08 0.12 0.16 0.17 0.15 0.15 0.13
0.04 0.02 0.03 0.03 0.04 0.07 0.07 0.06 0.04 0.03 0.02 0.01 0.00 0.00 0.00 0.00 0.00 0.00 0.01 0.01 0.01 0.02 0.02 0.03 0.03 0.02 0.02 0.01 0.02 0.03 0.04 0.03 0.02 0.01 0.01 0.01 0.03 0.05 0.06 0.10 0.13 0.11 0.10
0.02 0.02 0.04 0.11 0.14 0.10 0.08 0.07 0.04 0.02 0.01 0.00 0.00 0.00 0.00 0.00 0.00 0.00 0.01 0.01 0.03 0.05 0.05 0.06 0.04 0.04 0.03 0.02 0.04 0.06 0.08 0.04 0.02 0.02 0.03 0.03 0.04 0.04 0.04 0.07 0.10 0.13 0.09
0.04 0.07 0.17 0.19 0.15 0.12 0.11 0.06 0.03 0.02 0.00 0.00 0.00 0.00 0.00 0.00 0.00 0.00 0.01 0.02 0.03 0.10 0.15 0.11 0.08 0.07 0.05 0.06 0.07 0.07 0.09 0.07 0.05 0.04 0.08 0.06 0.05 0.07 0.08 0.13 0.17 0.20 0.24
0.25 0.33 0.25 0.18 0.12 0.06 0.03 0.01 0.00 0.00 0.00 0.00 0.00 0.00 0.00 0.00 0.00 0.00 0.00 0.01 0.02 0.03 0.09 0.12 0.14 0.09 0.09 0.07 0.07 0.09 0.11 0.13 0.10 0.04 0.06 0.05 0.04 0.05 0.02 0.01 0.02 0.03 0.10
0.33 0.23 0.12 0.04 0.01 0.00 0.00 0.00 0.00 0.00 0.00 0.00 0.00 0.00 0.00 0.00 0.01 0.02 0.11 0.08 0.02 0.01 0.01 0.03 0.07 0.06 0.05 0.04 0.06 0.09 0.12 0.12 0.06 0.01 0.03 0.08 0.02 0.03 0.03 0.00 0.00 0.00 0.03
0.06 0.00 0.00 0.00 0.00 0.00 0.00 0.00 0.00 0.00 0.00 0.00 0.00 0.00 0.01 0.01 0.02 0.08 0.10 0.06 0.03 0.02 0.01 0.02 0.04 0.07 0.10 0.09 0.09 0.21 0.18 0.20 0.15 0.05 0.04 0.09 0.04 0.04 0.02 0.01 0.00 0.00 0.01
0.00 0.00 0.00 0.00 0.00 0.00 0.01 0.00 0.00 0.01 0.01 0.02 0.02 0.01 0.01 0.05 0.12 0.09 0.15 0.12 0.11 0.04 0.02 0.03 0.02 0.03 0.04 0.05 0.04 0.08 0.14 0.26 0.23 0.17 0.07 0.18 0.09 0.11 0.15 0.08 0.04 0.03 0.02